| time (UTC) | temp F | wind direction | speed MPH | gust MPH | rain 1hr in | rain 24hr in | rain mn in | humidity % | barometer mb |
| 20260902083603 | 57 | 41 | 0.0 | 0.0 | 0.03 | 0.28 | 0.09 | 92 | 1013.2 |
| 20260902083105 | 56 | 42 | 0.0 | 0.0 | 0.02 | 0.28 | 0.09 | 92 | 1013.2 |
| 20260902081603 | 56 | 62 | 0.0 | 0.0 | 0.01 | 0.27 | 0.07 | 92 | 1013.1 |
| 20260902080603 | 56 | 64 | 0.0 | 0.0 | 0.01 | 0.28 | 0.07 | 92 | 1013.1 |
| 20260902080105 | 56 | 67 | 0.0 | 0.0 | 0.02 | 0.28 | 0.07 | 92 | 1013.2 |
| 20260902073104 | 56 | 294 | 0.0 | 0.0 | 0.02 | 0.28 | 0.06 | 92 | 1013.2 |
| 20260902071603 | 56 | 291 | 0.0 | 0.0 | 0.03 | 0.29 | 0.06 | 92 | 1013.2 |
| 20260902071104 | 56 | 290 | 0.0 | 0.0 | 0.03 | 0.29 | 0.06 | 92 | 1013.3 |
| 20260902070104 | 56 | 290 | 0.0 | 0.0 | 0.02 | 0.29 | 0.06 | 92 | 1013.2 |
| 20260902064604 | 56 | 290 | 0.0 | 0.0 | 0.02 | 0.28 | 0.05 | 92 | 1013.3 |
| 20260902063603 | 56 | 290 | 0.0 | 0.0 | 0.02 | 0.28 | 0.04 | 92 | 1013.2 |
| 20260902054603 | 56 | 273 | 0.0 | 0.0 | 0.02 | 0.30 | 0.03 | 91 | 1013.4 |
| 20260902051103 | 56 | 269 | 0.0 | 0.0 | 0.02 | 0.30 | 0.02 | 91 | 1013.6 |
| 20260902050105 | 56 | 269 | 0.0 | 0.0 | 0.02 | 0.30 | 0.02 | 91 | 1013.7 |
| 20260902040604 | 56 | 265 | 0.0 | 0.0 | 0.00 | 0.28 | 0.01 | 91 | 1013.7 |
| 20260902040104 | 56 | 265 | 0.0 | 0.0 | 0.00 | 0.28 | 0.01 | 91 | 1013.8 |
| 20260902034604 | 56 | 265 | 0.0 | 0.0 | 0.00 | 0.28 | 0.01 | 91 | 1013.8 |
| 20260902034103 | 56 | 265 | 0.0 | 0.0 | 0.00 | 0.28 | 0.01 | 91 | 1013.8 |
| 20260902033604 | 56 | 265 | 0.0 | 0.0 | 0.00 | 0.28 | 0.01 | 91 | 1013.8 |
| 20260902033105 | 56 | 265 | 0.0 | 0.0 | 0.00 | 0.28 | 0.01 | 91 | 1013.8 |
| 20260902031604 | 56 | 265 | 0.0 | 0.0 | 0.00 | 0.28 | 0.01 | 91 | 1013.8 |
| 20260902031104 | 56 | 265 | 0.0 | 0.0 | 0.00 | 0.28 | 0.01 | 91 | 1013.8 |
| 20260902030604 | 56 | 265 | 0.0 | 0.0 | 0.00 | 0.28 | 0.01 | 91 | 1013.9 |
| 20260902024104 | 56 | 265 | 0.0 | 0.0 | 0.00 | 0.28 | 0.01 | 91 | 1014.0 |
| 20260902021603 | 56 | 265 | 0.0 | 0.0 | 0.00 | 0.28 | 0.01 | 91 | 1014.0 |
| 20260902020053 | 56 | 265 | 0.0 | 0.0 | 0.00 | 0.28 | 0.01 | 91 | 1014.1 |
| 20260902014052 | 56 | 265 | 0.0 | 0.0 | 0.00 | 0.28 | 0.01 | 91 | 1014.2 |
| 20260902013053 | 56 | 265 | 0.0 | 2.0 | 0.00 | 0.28 | 0.01 | 91 | 1014.2 |
| 20260902011552 | 56 | 265 | 0.0 | 1.0 | 0.00 | 0.28 | 0.01 | 91 | 1014.3 |
| 20260902011052 | 56 | 266 | 0.0 | 0.0 | 0.00 | 0.28 | 0.01 | 91 | 1014.3 |
| 20260902010552 | 56 | 266 | 0.0 | 0.0 | 0.00 | 0.28 | 0.01 | 91 | 1014.3 |
| 20260902004052 | 56 | 266 | 0.0 | 0.0 | 0.00 | 0.28 | 0.01 | 91 | 1014.2 |
| 20260902003053 | 56 | 266 | 0.0 | 0.0 | 0.00 | 0.28 | 0.01 | 91 | 1014.2 |
| 20260902001052 | 56 | 267 | 0.0 | 3.0 | 0.01 | 0.28 | 0.01 | 91 | 1014.2 |
| 20260902000053 | 56 | 270 | 1.0 | 3.0 | 0.01 | 0.28 | 0.01 | 91 | 1014.2 |
| 20260901234552 | 56 | 269 | 0.0 | 2.0 | 0.01 | 0.28 | 0.01 | 91 | 1014.3 |
| 20260901233053 | 56 | 266 | 0.0 | 1.0 | 0.01 | 0.29 | 0.01 | 91 | 1014.3 |
| 20260901231052 | 56 | 267 | 0.0 | 0.0 | 0.00 | 0.28 | 0.00 | 91 | 1014.4 |
| 20260901230053 | 56 | 268 | 0.0 | 3.0 | 0.00 | 0.28 | 0.00 | 91 | 1014.3 |
| 20260901224552 | 56 | 279 | 0.0 | 2.0 | 0.00 | 0.28 | 0.28 | 91 | 1014.3 |
| 20260901224052 | 56 | 280 | 0.0 | 3.0 | 0.00 | 0.28 | 0.28 | 91 | 1014.3 |
| 20260901220553 | 56 | 284 | 1.0 | 3.0 | 0.00 | 0.28 | 0.28 | 91 | 1014.2 |
| 20260901220053 | 56 | 278 | 1.0 | 5.0 | 0.00 | 0.28 | 0.28 | 91 | 1014.2 |
| 20260901213552 | 56 | 253 | 1.0 | 3.0 | 0.00 | 0.28 | 0.28 | 90 | 1014.2 |
| 20260901213053 | 56 | 269 | 1.0 | 3.0 | 0.00 | 0.28 | 0.28 | 90 | 1014.2 |
| 20260901211552 | 56 | 273 | 0.0 | 2.0 | 0.00 | 0.28 | 0.28 | 90 | 1014.1 |
| 20260901211052 | 56 | 275 | 0.0 | 0.0 | 0.00 | 0.28 | 0.28 | 90 | 1014.0 |
| 20260901210552 | 56 | 273 | 0.0 | 1.0 | 0.00 | 0.28 | 0.28 | 90 | 1014.0 |
| 20260901210054 | 56 | 268 | 1.0 | 3.0 | 0.00 | 0.28 | 0.28 | 90 | 1013.9 |
| 20260901204052 | 56 | 225 | 0.0 | 5.0 | 0.01 | 0.28 | 0.28 | 90 | 1014.0 |
| 20260901203553 | 56 | 211 | 1.0 | 3.0 | 0.01 | 0.28 | 0.28 | 90 | 1014.0 |
| 20260901201053 | 57 | 245 | 2.0 | 3.0 | 0.02 | 0.28 | 0.28 | 90 | 1013.9 |
| 20260901194052 | 57 | 256 | 2.0 | 6.0 | 0.01 | 0.28 | 0.28 | 90 | 1013.9 |
| 20260901193552 | 57 | 232 | 1.0 | 2.0 | 0.01 | 0.28 | 0.28 | 90 | 1013.8 |
| 20260901191052 | 57 | 224 | 1.0 | 2.0 | 0.01 | 0.27 | 0.27 | 90 | 1013.7 |
| 20260901184053 | 57 | 167 | 1.0 | 3.0 | 0.01 | 0.27 | 0.27 | 90 | 1013.5 |
| 20260901183056 | 57 | 219 | 1.0 | 5.0 | 0.00 | 0.26 | 0.26 | 90 | 1013.5 |
| 20260901174553 | 58 | 252 | 2.0 | 6.0 | 0.00 | 0.26 | 0.26 | 90 | 1013.4 |
| 20260901174052 | 58 | 234 | 2.0 | 6.0 | 0.00 | 0.26 | 0.26 | 90 | 1013.4 |
| 20260901173552 | 58 | 173 | 2.0 | 6.0 | 0.00 | 0.26 | 0.26 | 89 | 1013.3 |
| 20260901173054 | 58 | 277 | 1.0 | 8.0 | 0.00 | 0.26 | 0.26 | 89 | 1013.3 |
| 20260901171052 | 58 | 263 | 1.0 | 3.0 | 0.01 | 0.26 | 0.26 | 90 | 1013.3 |
| 20260901170552 | 58 | 285 | 2.0 | 3.0 | 0.01 | 0.26 | 0.26 | 90 | 1013.3 |
| 20260901161552 | 59 | 265 | 2.0 | 7.0 | 0.06 | 0.26 | 0.26 | 89 | 1013.0 |
| 20260901160054 | 59 | 270 | 3.0 | 12.0 | 0.06 | 0.25 | 0.25 | 89 | 1012.9 |
| 20260901154552 | 59 | 265 | 3.0 | 8.0 | 0.05 | 0.24 | 0.24 | 89 | 1012.9 |
| 20260901154053 | 59 | 300 | 3.0 | 9.0 | 0.03 | 0.22 | 0.22 | 89 | 1012.9 |
| 20260901153552 | 60 | 291 | 3.0 | 10.0 | 0.02 | 0.20 | 0.20 | 89 | 1012.9 |
| 20260901150553 | 60 | 283 | 2.0 | 7.0 | 0.02 | 0.20 | 0.20 | 89 | 1012.6 |
| 20260901144552 | 61 | 237 | 4.0 | 9.0 | 0.01 | 0.19 | 0.19 | 89 | 1012.3 |
| 20260901143054 | 61 | 226 | 2.0 | 16.0 | 0.01 | 0.19 | 0.19 | 89 | 1012.2 |
| 20260901141552 | 61 | 142 | 5.0 | 12.0 | 0.00 | 0.18 | 0.18 | 89 | 1012.2 |
| 20260901141053 | 62 | 213 | 3.0 | 12.0 | 0.00 | 0.18 | 0.18 | 89 | 1012.2 |
| 20260901140054 | 62 | 286 | 5.0 | 16.0 | 0.00 | 0.18 | 0.18 | 89 | 1012.2 |
| 20260901134553 | 61 | 207 | 6.0 | 15.0 | 0.00 | 0.18 | 0.18 | 90 | 1011.9 |
| 20260901134053 | 61 | 192 | 5.0 | 14.0 | 0.01 | 0.18 | 0.18 | 90 | 1011.8 |
| 20260901133553 | 61 | 160 | 5.0 | 12.0 | 0.01 | 0.18 | 0.18 | 90 | 1011.9 |
| 20260901131553 | 60 | 248 | 4.0 | 14.0 | 0.01 | 0.18 | 0.18 | 90 | 1012.0 |
| 20260901130053 | 60 | 187 | 4.0 | 16.0 | 0.01 | 0.18 | 0.18 | 90 | 1012.0 |
| 20260901124553 | 60 | 283 | 3.0 | 8.0 | 0.01 | 0.18 | 0.18 | 90 | 1012.1 |
| 20260901124052 | 60 | 325 | 4.0 | 16.0 | 0.00 | 0.17 | 0.17 | 90 | 1012.0 |
| 20260901120553 | 60 | 197 | 4.0 | 20.0 | 0.00 | 0.17 | 0.17 | 90 | 1011.8 |
| 20260901120054 | 60 | 321 | 3.0 | 12.0 | 0.01 | 0.17 | 0.17 | 91 | 1011.7 |
| 20260901114553 | 60 | 63 | 3.0 | 13.0 | 0.01 | 0.17 | 0.17 | 90 | 1011.8 |
| 20260901114052 | 60 | 172 | 6.0 | 13.0 | 0.01 | 0.18 | 0.17 | 90 | 1011.7 |
| 20260901113054 | 60 | 210 | 5.0 | 20.0 | 0.01 | 0.18 | 0.17 | 90 | 1011.6 |
| 20260901111553 | 60 | 241 | 5.0 | 14.0 | 0.02 | 0.18 | 0.17 | 90 | 1011.4 |
| 20260901110054 | 59 | 252 | 3.0 | 20.0 | 0.02 | 0.17 | 0.17 | 90 | 1011.5 |
| 20260901104552 | 59 | 205 | 5.0 | 15.0 | 0.03 | 0.17 | 0.17 | 90 | 1011.5 |
| 20260901104053 | 59 | 214 | 5.0 | 12.0 | 0.03 | 0.17 | 0.17 | 90 | 1011.6 |
| 20260901101053 | 58 | 194 | 8.0 | 21.0 | 0.02 | 0.16 | 0.15 | 90 | 1011.9 |
| 20260901100054 | 58 | 161 | 4.0 | 18.0 | 0.02 | 0.15 | 0.14 | 90 | 1011.9 |
| 20260901094553 | 58 | 182 | 6.0 | 20.0 | 0.02 | 0.14 | 0.13 | 90 | 1011.8 |
| 20260901094053 | 58 | 173 | 8.0 | 20.0 | 0.03 | 0.14 | 0.13 | 90 | 1011.8 |
| 20260901093553 | 58 | 163 | 3.0 | 10.0 | 0.03 | 0.14 | 0.13 | 90 | 1011.8 |
| 20260901093054 | 58 | 306 | 8.0 | 20.0 | 0.04 | 0.15 | 0.13 | 90 | 1011.8 |
| 20260901091553 | 58 | 151 | 3.0 | 14.0 | 0.05 | 0.17 | 0.13 | 90 | 1011.8 |
| 20260901084053 | 58 | 176 | 6.0 | 16.0 | 0.03 | 0.14 | 0.10 | 90 | 1011.9 |